This is the latest recevied weather packets stored in our database for station/object KDEQ. If no packets are shown the sender has not sent any weather packets the latest 10 day(s).
| Time | Temp. | Humidity | Pressure | Rain* | Wind** | Luminosity | Snow |
|---|---|---|---|---|---|---|---|
| 1777761214 | 22.78° C | 35% | 1017.6 hPa | - | - | - | - |
| 1777760608 | 22.78° C | 35% | 1017.6 hPa | - | - | - | - |
| 1777758809 | 22.78° C | 33% | 1017.9 hPa | - | - | - | - |
| 1777758209 | 22.78° C | 33% | 1017.9 hPa | - | - | - | - |
| 1777757611 | 22.78° C | 33% | 1017.9 hPa | - | - | - | - |
| 1777757011 | 22.78° C | 33% | 1017.9 hPa | - | - | - | - |
| 1777756414 | 22.78° C | 33% | 1017.9 hPa | - | - | - | - |
| 1777753411 | 22.78° C | 33% | 1018.6 hPa | - | - | - | - |
| 1777737337 | 17.78° C | 55% | 1020.3 hPa | - | - | - | - |
| 1777736014 | 17.78° C | 55% | 1020.3 hPa | - | - | - | - |
| 1777735409 | 17.78° C | 55% | 1020.3 hPa | - | - | - | - |
| 1777734811 | 17.78° C | 55% | 1020.3 hPa | - | - | - | - |
| 1777733011 | 15° C | 72% | 1020.3 hPa | - | - | - | - |
| 1777732413 | 15° C | 72% | 1020.3 hPa | - | - | - | - |
| 1777731810 | 15° C | 72% | 1020.3 hPa | - | - | - | - |
| 1777731210 | 15° C | 72% | 1020.3 hPa | - | - | - | - |
| 1777728814 | 11.67° C | 87% | 1019.6 hPa | - | - | - | - |
| 1777728213 | 11.67° C | 87% | 1019.6 hPa | - | - | - | - |
| 1777727612 | 11.67° C | 87% | 1019.6 hPa | - | - | - | - |
| 1777726407 | 8.89° C | 100% | 1018.6 hPa | - | - | - | - |
| 1777725213 | 8.89° C | 100% | 1018.6 hPa | - | - | - | - |
| 1777724610 | 8.89° C | 100% | 1018.6 hPa | - | - | - | - |
| 1777724010 | 8.89° C | 100% | 1018.6 hPa | - | - | - | - |
| 1777723413 | 8.89° C | 100% | 1018.6 hPa | - | - | - | - |
| 1777722811 | 8.89° C | 100% | 1018.6 hPa | - | - | - | - |
* Rain since midnight (hover to see other rain measurements)
** Current wind speed in m/s (hover to see current wind gust speed)